Clarksdale Fletcher Field Air, MS

5:25 AM CST on December 09, 2019 (GMT -0600)
Fletcher

Weather History for KCKM - August, 2019

Change the Weather History Date:

Friday, August 30, 2019

  Actual Average (KUOX) Record (KUOX)
Temperature  
Mean Temperature 74 °F -  
Max Temperature 89 °F 88 °F 101 °F (1943)
Min Temperature 60 °F 65 °F 51 °F (1986)
Cooling Degree Days 10    
Growing Degree Days 24 (Base 50)    
Moisture  
Dew Point 65 °F    
Average Humidity 79    
Maximum Humidity 100    
Minimum Humidity 40    
Precipitation  
Precipitation 0.00 in - - ()
Sea Level Pressure  
Sea Level Pressure 30.07 in    
Wind  
Wind Speed 0 mph ()    
Max Wind Speed 0 mph    
Max Gust Speed -    
Visibility 10.0 miles    
Events      
Averages and records for this station are not official NWS values.
T = Trace of Precipitation, MM = Missing Value Source: Averaged Metar Reports

Daily Weather History Graph

Daily Weather History Graph

Search for Another Location

Airport or City:

Astronomy

Aug. 30, 2019 Rise Set
Actual Time 6:33 AM CDT 7:31 PM CDT
Civil Twilight 6:08 AM CDT 7:56 PM CDT
Nautical Twilight 5:37 AM CDT 8:27 PM CDT
Astronomical Twilight 5:06 AM CDT 8:58 PM CDT
Moon 6:37 AM CDT (8/30) 8:07 PM CDT (8/30)
Length of Visible Light 13h 48m
Length of Day
12h 57m
New Moon, 0% of the Moon is Illuminated
Aug 30
New Moon
Sep 5
First Quarter
Sep 13
Full
Sep 21
Last Quarter
Sep 28
New

Hourly Weather History & Observations

Time (CDT) Temp. Heat Index Dew Point Humidity Pressure Visibility Wind Dir Wind Speed Gust Speed Precip Events Conditions
12:15 AM 66.2 °F - 66.2 °F 100% 30.08 in 10.0 mi Calm Calm - N/A   Unknown
12:35 AM 66.2 °F - 66.2 °F 100% 30.08 in 10.0 mi Calm Calm - N/A   Unknown
12:55 AM 66.2 °F - 66.2 °F 100% 30.07 in 10.0 mi Calm Calm - N/A   Unknown
1:15 AM 66.2 °F - 66.2 °F 100% 30.07 in 10.0 mi Calm Calm - N/A   Unknown
1:35 AM 66.2 °F - 66.2 °F 100% 30.07 in 10.0 mi Calm Calm - N/A   Unknown
1:55 AM 64.4 °F - 64.4 °F 100% 30.06 in 10.0 mi Calm Calm - N/A   Unknown
2:15 AM 64.4 °F - 64.4 °F 100% 30.06 in 10.0 mi Calm Calm - N/A   Unknown
2:35 AM 64.4 °F - 64.4 °F 100% 30.06 in 10.0 mi Calm Calm - N/A   Unknown
2:55 AM 62.6 °F - 62.6 °F 100% 30.05 in 10.0 mi Calm Calm - N/A   Unknown
3:15 AM 62.6 °F - 62.6 °F 100% 30.05 in 10.0 mi Calm Calm - N/A   Unknown
3:35 AM 62.6 °F - 62.6 °F 100% 30.05 in 10.0 mi Calm Calm - N/A   Unknown
3:55 AM 62.6 °F - 62.6 °F 100% 30.06 in 10.0 mi Calm Calm - N/A   Unknown
4:15 AM 62.6 °F - 62.6 °F 100% 30.06 in 10.0 mi Calm Calm - N/A   Unknown
4:35 AM 62.6 °F - 62.6 °F 100% 30.06 in 10.0 mi Calm Calm - N/A   Unknown
4:55 AM 62.6 °F - 62.6 °F 100% 30.07 in 10.0 mi Calm Calm - N/A   Unknown
5:15 AM 60.8 °F - 60.8 °F 100% 30.09 in 10.0 mi Calm Calm - N/A   Unknown
5:35 AM 60.8 °F - 60.8 °F 100% 30.09 in 10.0 mi Calm Calm - N/A   Unknown
5:55 AM 60.8 °F - 60.8 °F 100% 30.10 in 10.0 mi Calm Calm - N/A   Unknown
6:15 AM 60.8 °F - 60.8 °F 100% 30.10 in 10.0 mi Calm Calm - N/A   Unknown
6:35 AM 62.6 °F - 62.6 °F 100% 30.11 in 8.0 mi Calm Calm - N/A   Unknown
6:55 AM 60.8 °F - 60.8 °F 100% 30.10 in 10.0 mi Calm Calm - N/A   Unknown
7:15 AM 62.6 °F - 62.6 °F 100% 30.09 in 10.0 mi Calm Calm - N/A   Unknown
7:35 AM 64.4 °F - 64.4 °F 100% 30.10 in 10.0 mi Calm Calm - N/A   Unknown
7:55 AM 66.2 °F - 66.2 °F 100% 30.10 in 10.0 mi Calm Calm - N/A   Unknown
8:15 AM 69.8 °F - 69.8 °F 100% 30.10 in 10.0 mi Calm Calm - N/A   Unknown
8:55 AM 73.4 °F - 69.8 °F 88% 30.11 in 10.0 mi Calm Calm - N/A   Unknown
9:15 AM 75.2 °F - 69.8 °F 83% 30.11 in 10.0 mi Calm Calm - N/A   Unknown
9:35 AM 77.0 °F - 69.8 °F 78% 30.10 in 10.0 mi Calm Calm - N/A   Unknown
10:15 AM 80.6 °F 82.3 °F 64.4 °F 58% 30.11 in 10.0 mi Calm Calm - N/A   Unknown
10:35 AM 82.4 °F 83.9 °F 64.4 °F 54% 30.11 in 10.0 mi Calm Calm - N/A   Unknown
10:55 AM 84.2 °F 85.6 °F 64.4 °F 51% 30.10 in 10.0 mi Calm Calm - N/A   Unknown
11:15 AM 84.2 °F 85.0 °F 62.6 °F 48% 30.10 in 10.0 mi Calm Calm - N/A   Unknown
11:35 AM 84.2 °F 85.0 °F 62.6 °F 48% 30.10 in 10.0 mi Calm Calm - N/A   Unknown
11:55 AM 84.2 °F 85.0 °F 62.6 °F 48% 30.09 in 10.0 mi Calm Calm - N/A   Unknown
12:15 PM 86.0 °F 86.6 °F 62.6 °F 45% 30.09 in 10.0 mi Calm Calm - N/A   Unknown
12:35 PM 86.0 °F 86.6 °F 62.6 °F 45% 30.09 in 10.0 mi Calm Calm - N/A   Unknown
12:55 PM 87.8 °F 88.5 °F 62.6 °F 43% 30.09 in 10.0 mi Calm Calm - N/A   Unknown
1:15 PM 87.8 °F 88.5 °F 62.6 °F 43% 30.07 in 10.0 mi Calm Calm - N/A   Unknown
1:35 PM 87.8 °F 88.5 °F 62.6 °F 43% 30.06 in 10.0 mi Calm Calm - N/A   Unknown
1:55 PM 87.8 °F 87.6 °F 60.8 °F 40% 30.05 in 10.0 mi Calm Calm - N/A   Unknown
2:15 PM 87.8 °F 89.4 °F 64.4 °F 46% 30.05 in 10.0 mi Calm Calm - N/A   Unknown
2:55 PM 89.6 °F 91.1 °F 64.4 °F 43% 30.03 in 10.0 mi Calm Calm - N/A   Unknown
3:15 PM 89.6 °F 91.1 °F 64.4 °F 43% 30.03 in 10.0 mi Calm Calm - N/A   Unknown
3:35 PM 89.6 °F 90.1 °F 62.6 °F 40% 30.02 in 10.0 mi Calm Calm - N/A   Unknown
3:55 PM 89.6 °F 90.1 °F 62.6 °F 40% 30.02 in 10.0 mi Calm Calm - N/A   Unknown
4:15 PM 89.6 °F 90.1 °F 62.6 °F 40% 30.02 in 10.0 mi Calm Calm - N/A   Unknown
4:35 PM 89.6 °F 91.1 °F 64.4 °F 43% 30.01 in 10.0 mi Calm Calm - N/A   Unknown
4:55 PM 87.8 °F 89.4 °F 64.4 °F 46% 30.01 in 10.0 mi Calm Calm - N/A   Unknown
5:35 PM 86.0 °F 88.2 °F 66.2 °F 51% 30.01 in 10.0 mi Calm Calm - N/A   Unknown
6:35 PM 82.4 °F 84.6 °F 66.2 °F 58% 30.02 in 10.0 mi Calm Calm - N/A   Unknown
6:55 PM 80.6 °F 83.9 °F 69.8 °F 70% 30.02 in 10.0 mi Calm Calm - N/A   Unknown
7:15 PM 80.6 °F 83.9 °F 69.8 °F 70% 30.03 in 10.0 mi Calm Calm - N/A   Unknown
7:35 PM 77.0 °F - 71.6 °F 83% 30.03 in 10.0 mi Calm Calm - N/A   Unknown
7:55 PM 75.2 °F - 71.6 °F 89% 30.04 in 10.0 mi Calm Calm - N/A   Unknown
8:15 PM 77.0 °F - 69.8 °F 78% 30.03 in 10.0 mi Calm Calm - N/A   Unknown
8:35 PM 73.4 °F - 71.6 °F 94% 30.04 in 10.0 mi Calm Calm - N/A   Unknown
8:55 PM 73.4 °F - 71.6 °F 94% 30.04 in 10.0 mi Calm Calm - N/A   Unknown
9:15 PM 71.6 °F - 69.8 °F 94% 30.04 in 10.0 mi Calm Calm - N/A   Unknown
9:35 PM 73.4 °F - 69.8 °F 88% 30.05 in 10.0 mi Calm Calm - N/A   Unknown
9:55 PM 71.6 °F - 69.8 °F 94% 30.06 in 10.0 mi Calm Calm - N/A   Unknown
10:35 PM 71.6 °F - 69.8 °F 94% 30.07 in 10.0 mi Calm Calm - N/A   Unknown
10:55 PM 71.6 °F - 69.8 °F 94% 30.08 in 10.0 mi Calm Calm - N/A   Unknown
11:15 PM 69.8 °F - 69.8 °F 100% 30.08 in 10.0 mi Calm Calm - N/A   Unknown
11:35 PM 69.8 °F - 69.8 °F 100% 30.08 in 10.0 mi Calm Calm - N/A   Unknown
11:55 PM 69.8 °F - 69.8 °F 100% 30.08 in 10.0 mi Calm Calm - N/A   Unknown